Stations météo

réclame
Mon MeteoGroup
Wernigerode, Allemagne (10454): Température de l'air & dewpoint: 13.06.2019 17:00:00 - 19.06.2019 17:00:00 (CEST)Wernigerode, Allemagne (10454): Température de l'air 5cm & Température de l'air -5cm: 13.06.2019 17:00:00 - 19.06.2019 17:00:00 (CEST)Wernigerode, Allemagne (10454): Température de l'air -20cm & Température de l'air -100cm: 13.06.2019 17:00:00 - 19.06.2019 17:00:00 (CEST)Wernigerode, Allemagne (10454): Vitesse du vent & gusts: 13.06.2019 17:00:00 - 19.06.2019 17:00:00 (CEST)Wernigerode, Allemagne (10454): Direction du vent: 13.06.2019 17:00:00 - 19.06.2019 17:00:00 (CEST)Wernigerode, Allemagne (10454): reduced air pressure: 13.06.2019 17:00:00 - 19.06.2019 17:00:00 (CEST)Wernigerode, Allemagne (10454): visibility: 13.06.2019 17:00:00 - 19.06.2019 17:00:00 (CEST)Wernigerode, Allemagne (10454): Ensoleillement: 13.06.2019 17:00:00 - 19.06.2019 17:00:00 (CEST)Wernigerode, Allemagne (10454): Quantités de précipitations: 13.06.2019 17:00:00 - 19.06.2019 17:00:00 (CEST)
Date & Time tt [°C] td [°C] tt 5cm [°C] tt -5cm [°C] tt -20cm [°C] tt -100cm [°C] ff [km/h] ff [knt] fx [km/h] fx [knt] dd ppp [hPa] vv [km] sd [min] rr [mm]
19.06.2019 17:00:00 29,9 10,5 31,4 38,0 27,9 16,2 4 2 21 12 SW 1006,2 72 38 0,0
19.06.2019 16:00:00 30,7 9,6 34,4 39,6 27,0 16,2 13 7 27 14 WSW 1006,9 55 60 0,0
19.06.2019 15:00:00 29,9 12,4 34,2 39,7 26,0 16,1 13 7 30 16 SSW 1007,1 57 60 0,0
19.06.2019 14:00:00 29,6 13,2 34,2 38,5 24,9 16,1 16 8 29 16 SSW 1007,7 73 53 0,0
19.06.2019 13:00:00 29,2 10,4 33,9 37,6 23,8 16,1 16 9 26 14 S 1008,0 45 51 0,0
19.06.2019 12:00:00 28,7 10,3 32,2 36,0 22,7 16,1 9 5 29 16 SW 1008,3 63 54 0,0
19.06.2019 11:00:00 27,5 15,8 31,1 32,5 21,9 16,1 6 3 16 9 ESE 1008,3 71 52 0,0
19.06.2019 10:00:00 26,1 16,7 30,8 30,4 21,2 16,1 9 5 13 7 NE 1008,6 60 60 0,0
19.06.2019 09:00:00 24,8 15,6 27,6 26,4 20,9 16,0 5 3 8 5 NE 1009,2 42 60 0,0
19.06.2019 08:00:00 23,3 14,1 23,7 22,3 20,8 16,0 3 2 9 5 ESE 1009,7 44 60 0,0
19.06.2019 07:00:00 20,5 13,9 19,9 19,6 21,1 16,0 4 2 10 6 SE 1010,1 66 40 0,0
19.06.2019 06:00:00 18,6 13,0 17,2 18,4 21,5 16,0 6 3 11 6 SSE 1010,6 48 8 0,0
19.06.2019 05:00:00 18,0 12,5 15,7 18,4 21,9 16,0 8 4 12 7 SE 1010,8 59 0 0,0
19.06.2019 04:00:00 17,9 13,0 15,0 18,9 22,4 16,0 6 4 13 7 SSE 1011,2 51 0 0,0
19.06.2019 03:00:00 18,1 12,9 15,4 19,7 22,9 16,0 6 3 11 6 SSE 1011,5 64 0 0,0
19.06.2019 02:00:00 19,3 12,7 17,9 20,3 23,5 16,0 8 4 12 7 SSE 1012,0 51 0 0,0
19.06.2019 01:00:00 19,1 12,9 16,5 21,1 24,1 16,0 6 3 12 6 SSE 1012,4 53 0 0,0
19.06.2019 00:00:00 19,5 13,2 17,6 22,3 24,8 16,0 8 4 11 6 ESE 1012,7 44 0 0,0
18.06.2019 23:00:00 20,4 13,5 17,4 23,7 25,4 15,9 5 3 13 7 SSE 1012,6 58 0 0,0
18.06.2019 22:00:00 20,1 14,9 18,0 25,4 26,0 15,9 4 2 6 4 ESE 1012,8 44 0 0,0
18.06.2019 21:00:00 23,6 13,3 21,1 27,9 26,3 15,9 4 2 8 5 SSW 1012,2 47 0 0,0
18.06.2019 20:00:00 25,8 12,9 24,8 31,0 26,4 15,9 6 3 13 7 WSW 1012,1 41 43 0,0
18.06.2019 19:00:00 27,8 9,3 30,1 33,9 26,2 15,9 6 4 17 9 SSW 1012,1 64 47 0,0
18.06.2019 18:00:00 28,2 9,0 30,3 35,9 25,7 15,9 8 4 21 11 SW 1012,5 56 55 0,0
18.06.2019 17:00:00 28,2 9,7 30,9 36,3 25,1 15,9 11 6 22 12 SW 1012,9 31 56 0,0
18.06.2019 16:00:00 27,6 10,8 30,6 33,9 24,5 15,9 8 4 21 12 SE 1013,4 57 23 0,0
18.06.2019 15:00:00 27,0 9,1 30,8 37,1 23,4 15,9 10 6 29 16 SE 1014,0 51 53 0,0
18.06.2019 14:00:00 27,6 10,9 32,8 36,0 22,3 15,9 11 6 30 16 SSE 1014,5 46 53 0,0
18.06.2019 13:00:00 26,4 11,9 31,9 34,1 21,1 15,9 14 8 33 18 E 1015,1 56 51 0,0
18.06.2019 12:00:00 26,2 10,4 29,7 33,4 20,0 15,9 10 6 26 14 ESE 1015,5 75 60 0,0
18.06.2019 11:00:00 26,2 12,5 29,2 29,9 19,1 15,9 13 7 26 14 SE 1015,9 48 60 0,0
18.06.2019 10:00:00 24,7 12,3 27,2 26,2 18,4 15,9 4 2 20 11 SSE 1016,2 44 60 0,0
18.06.2019 09:00:00 22,0 15,2 23,5 23,2 18,0 15,9 9 5 16 8 ENE 1016,8 51 60 0,0
18.06.2019 08:00:00 22,8 11,6 22,7 19,8 17,8 15,9 6 3 15 8 S 1016,8 61 60 0,0
18.06.2019 07:00:00 19,1 13,1 17,4 16,2 18,0 15,9 2 1 10 5 ENE 1017,3 53 60 0,0
18.06.2019 06:00:00 14,7 12,2 12,5 14,3 18,4 15,9 4 2 10 5 ENE 1017,8 42 21 0,0
18.06.2019 05:00:00 13,2 11,5 11,0 14,4 18,8 15,9 6 3 8 5 E 1018,2 41 0 0,0
18.06.2019 04:00:00 14,3 11,5 11,4 15,0 19,2 15,9 3 2 10 5 E 1018,4 36 0 0,0
18.06.2019 03:00:00 15,8 11,4 12,3 15,6 19,6 15,9 7 4 14 7 SSE 1018,6 49 0 0,0
18.06.2019 02:00:00 16,5 11,5 14,5 16,2 20,1 15,9 10 5 14 8 S 1018,9 54 0 0,0
18.06.2019 01:00:00 16,4 11,7 13,1 16,9 20,6 15,9 8 4 13 7 SSE 1019,2 54 0 0,0
18.06.2019 00:00:00 16,3 12,4 13,6 17,8 21,2 15,9 8 5 13 7 S 1019,0 49 0 0,0
17.06.2019 23:00:00 16,5 13,0 13,6 19,1 21,7 15,9 2 1 6 3 ESE 1019,0 44 0 0,0
17.06.2019 22:00:00 18,7 13,2 15,6 20,9 22,1 15,9 3 1 8 5 SSE 1018,8 50 5 0,0
17.06.2019 21:00:00 22,9 11,7 21,2 23,1 22,3 15,9 7 4 16 8 E 1018,3 59 51 0,0
17.06.2019 20:00:00 24,0 10,8 23,2 24,8 22,3 15,9 9 5 20 11 E 1018,4 52 55 0,0
17.06.2019 19:00:00 24,3 10,4 24,8 26,7 22,2 15,9 11 6 21 11 E 1018,7 64 34 0,0
17.06.2019 18:00:00 24,8 11,0 27,4 27,8 22,0 15,9 11 6 21 11 E 1019,0 48 36 0,0
17.06.2019 17:00:00 24,3 10,2 27,7 26,8 21,8 15,9 10 6 22 12 E 1019,6 58 21 0,0
17.06.2019 16:00:00 23,2 10,9 23,8 26,3 21,5 15,9 12 7 23 12 ESE 1020,1 62 11 0,0
17.06.2019 15:00:00 23,4 11,9 24,9 27,9 21,0 15,9 10 6 27 15 E 1020,4 50 25 0,0
17.06.2019 14:00:00 22,6 11,4 24,1 27,9 20,3 15,9 14 7 27 15 E 1020,8 56 37 0,0
17.06.2019 13:00:00 22,2 11,8 24,4 27,3 19,6 15,9 13 7 26 14 E 1021,1 70 51 0,0
17.06.2019 12:00:00 22,1 12,6 25,7 26,6 18,8 15,9 13 7 23 12 NE 1021,4 75 47 0,0
17.06.2019 11:00:00 21,1 12,4 24,8 26,4 18,0 15,9 9 5 19 10 NE 1022,0 42 60 0,0
17.06.2019 10:00:00 19,9 12,4 23,6 24,3 17,4 15,9 7 4 12 7 ENE 1022,3 41 60 0,0
17.06.2019 09:00:00 19,6 11,9 19,6 21,6 16,9 15,9 5 3 10 5 NE 1022,6 45 60 0,0
17.06.2019 08:00:00 18,3 12,9 16,8 18,0 16,8 15,9 4 2 10 5 E 1022,5 63 53 0,0
17.06.2019 07:00:00 14,9 12,8 13,7 15,0 16,9 15,9 5 3 10 6 SSE 1022,8 47 7 0,0
17.06.2019 06:00:00 13,9 12,3 13,1 14,3 17,0 15,9 5 3 8 5 SSE 1022,7 40 13 0,0
17.06.2019 05:00:00 13,8 12,4 12,9 14,2 17,2 15,9 6 3 10 5 SSE 1022,2 46 0 0,0
17.06.2019 04:00:00 13,7 12,2 12,7 14,1 17,5 15,9 5 3 11 6 SSE 1022,3 38 0 0,0
17.06.2019 03:00:00 12,8 11,5 11,3 13,8 17,9 15,9 5 3 11 6 SSE 1022,5 36 0 0,0
17.06.2019 02:00:00 13,2 12,0 11,3 14,3 18,2 15,9 6 4 12 7 SSE 1022,3 31 0 0,0
17.06.2019 01:00:00 13,9 12,4 12,0 15,1 18,5 15,9 6 4 13 7 S 1022,0 32 0 0,0
17.06.2019 00:00:00 14,8 12,4 13,0 16,0 18,8 15,9 7 4 12 7 S 1022,0 45 0 0,0
16.06.2019 23:00:00 14,9 12,9 14,1 16,7 19,1 15,9 7 4 11 6 S 1021,9 45 0 0,0
16.06.2019 22:00:00 15,8 14,4 15,0 17,5 19,3 15,9 5 3 9 5 SSW 1021,6 42 0 0,0
16.06.2019 21:00:00 16,2 14,8 15,7 18,0 19,5 15,9 3 2 5 3 ESE 1021,3 24 0 0,0
16.06.2019 20:00:00 16,0 14,3 15,4 18,5 19,7 15,9 2 1 21 12 SSE 1021,4 38 0 0,9
16.06.2019 19:00:00 16,2 13,4 15,8 19,0 19,8 15,8 11 6 32 17 W 1021,6 29 0 0,0
16.06.2019 18:00:00 19,1 13,0 18,8 20,4 19,8 15,8 6 3 17 9 SW 1020,4 61 0 0,0
16.06.2019 17:00:00 19,6 13,1 20,6 21,5 19,7 15,8 7 4 14 7 SE 1020,5 75 0 0,0
16.06.2019 16:00:00 18,5 13,5 19,1 21,1 19,5 15,8 7 4 14 7 SSE 1020,9 47 0 0,0
16.06.2019 15:00:00 18,9 14,1 19,0 21,6 19,4 15,8 4 2 9 5 NE 1020,9 29 0 0,1
16.06.2019 14:00:00 18,5 13,8 19,0 21,3 19,1 15,8 7 4 13 7 SSW 1020,7 48 0 0,0
16.06.2019 13:00:00 19,0 13,4 20,2 22,3 18,6 15,8 2 1 8 5 SSE 1020,5 52 3 0,0
16.06.2019 12:00:00 18,1 13,3 19,2 21,1 18,3 15,8 7 4 14 8 SSW 1020,4 56 0 0,1
16.06.2019 11:00:00 16,8 14,0 17,0 18,9 18,2 15,8 7 4 15 8 SSE 1020,3 37 0 0,1
16.06.2019 10:00:00 15,7 13,8 15,7 17,5 18,1 15,8 4 2 9 5 ESE 1020,1 16 0 2,1
16.06.2019 09:00:00 15,7 12,2 14,8 17,5 18,1 15,7 0 0 7 4 N 1019,9 15 0 0,3
16.06.2019 08:00:00 15,4 12,1 16,2 16,6 18,1 15,7 3 2 9 5 NE 1019,3 56 0 0,0
16.06.2019 07:00:00 13,9 11,2 13,5 15,0 18,4 15,7 6 3 9 5 SE 1018,7 59 0 0,0
16.06.2019 06:00:00 11,8 10,7 11,2 14,0 18,8 15,7 2 1 10 5 S 1018,4 43 0 0,0
16.06.2019 05:00:00 11,6 10,5 9,4 14,1 19,3 15,7 5 3 9 5 SSE 1018,4 43 0 0,0
16.06.2019 04:00:00 11,7 10,6 10,0 14,7 19,8 15,7 0 0 7 4 N 1018,2 30 0 0,0
16.06.2019 03:00:00 12,0 10,8 10,2 15,3 20,3 15,7 2 1 10 5 E 1018,4 33 0 0,0
16.06.2019 02:00:00 12,7 10,9 10,7 16,1 20,9 15,7 3 1 8 5 ENE 1018,1 40 0 0,0
16.06.2019 01:00:00 13,9 11,7 11,5 17,0 21,5 15,7 7 4 11 6 S 1017,8 48 0 0,0
16.06.2019 00:00:00 14,6 11,6 11,9 18,1 22,2 15,7 5 3 11 6 SW 1016,8 66 0 0,0
15.06.2019 23:00:00 16,5 11,9 13,6 19,5 22,8 15,7 9 5 12 7 WSW 1015,5 69 0 0,0
15.06.2019 22:00:00 17,3 12,3 14,9 21,3 23,3 15,7 0 0 20 11 N 1015,5 64 3 0,0
15.06.2019 21:00:00 20,2 11,5 19,3 23,5 23,7 15,7 13 7 33 18 W 1014,4 68 45 0,0
15.06.2019 20:00:00 22,0 11,5 21,2 25,9 23,8 15,6 16 8 38 21 W 1013,7 75 60 0,0
15.06.2019 19:00:00 22,8 13,5 24,9 28,4 23,7 15,6 17 9 38 21 W 1012,8 69 47 0,0
15.06.2019 18:00:00 23,6 13,8 25,0 29,2 23,6 15,6 23 12 36 19 W 1012,5 75 23 0,0
15.06.2019 17:00:00 23,2 15,1 24,6 29,0 23,4 15,6 15 8 31 17 NW 1012,0 48 16 0,0
15.06.2019 16:00:00 25,1 14,0 28,5 29,4 23,0 15,6 16 9 40 22 W 1011,7 45 11 0,0
15.06.2019 15:00:00 25,4 14,0 28,9 31,4 22,3 15,6 19 10 40 22 W 1011,0 46 31 0,0
15.06.2019 14:00:00 25,4 14,6 28,1 32,1 21,5 15,6 21 11 42 23 WSW 1010,1 47 44 0,0
15.06.2019 13:00:00 27,1 13,5 30,7 31,9 20,5 15,6 20 11 44 24 SW 1008,7 41 50 0,0
15.06.2019 12:00:00 26,8 14,7 28,5 30,3 19,6 15,6 14 8 32 17 SSW 1007,6 56 54 0,0
15.06.2019 11:00:00 26,6 16,0 29,1 26,8 18,9 15,6 12 6 38 20 W 1007,3 56 54 0,0
15.06.2019 10:00:00 22,7 17,6 24,5 23,7 18,5 15,6 5 3 18 10 N 1007,2 27 46 0,0
15.06.2019 09:00:00 20,8 16,8 22,2 21,0 18,3 15,6 10 6 16 8 NE 1007,1 29 8 0,0
15.06.2019 08:00:00 20,1 15,9 20,1 18,7 18,2 15,6 5 3 14 8 ENE 1007,6 36 14 0,0
15.06.2019 07:00:00 19,5 15,0 18,7 17,3 18,4 15,6 8 4 11 6 ENE 1007,7 33 0 0,0
15.06.2019 06:00:00 17,5 13,9 16,3 16,2 18,6 15,6 7 4 12 7 SSE 1008,5 44 0 0,0
15.06.2019 05:00:00 16,9 13,4 14,7 16,3 18,9 15,6 4 2 10 5 S 1009,0 53 0 0,0
15.06.2019 04:00:00 17,6 13,4 15,3 16,7 19,2 15,6 3 2 12 7 SE 1009,6 50 0 0,0
15.06.2019 03:00:00 18,3 13,0 15,6 17,2 19,5 15,6 6 3 12 7 S 1011,1 55 0 0,0
15.06.2019 02:00:00 17,2 13,5 15,1 17,7 19,9 15,6 2 1 9 5 S 1012,3 56 0 0,0
15.06.2019 01:00:00 19,1 13,1 16,4 18,5 20,2 15,6 3 2 13 7 SSE 1012,7 49 0 0,0
15.06.2019 00:00:00 20,5 12,6 17,8 19,3 20,5 15,6 3 1 16 9 S 1013,6 51 0 0,0
14.06.2019 23:00:00 21,1 13,5 20,1 20,0 20,8 15,6 9 5 14 8 S 1014,1 61 0 0,0
14.06.2019 22:00:00 22,3 13,1 20,4 20,8 21,1 15,6 8 4 15 8 S 1014,2 57 0 0,0
14.06.2019 21:00:00 24,0 13,0 21,1 22,1 21,3 15,6 7 4 13 7 SE 1014,1 36 0 0,0
14.06.2019 20:00:00 25,7 11,7 24,4 23,1 21,3 15,6 9 5 20 11 S 1014,2 62 0 0,0
14.06.2019 19:00:00 26,0 14,2 25,7 24,7 21,2 15,6 13 7 21 11 E 1013,9 53 19 0,0
14.06.2019 18:00:00 26,3 14,1 27,0 25,2 21,1 15,6 8 5 21 12 E 1014,3 61 16 0,0
14.06.2019 17:00:00 26,2 12,8 26,7 25,1 20,9 15,6 11 6 22 12 E 1014,7 57 2 0,0
14.06.2019 16:00:00 26,4 10,7 26,8 25,1 20,5 15,7 13 7 29 15 ESE 1015,1 65 4 0,0
14.06.2019 15:00:00 27,1 9,7 28,6 26,3 19,9 15,7 13 7 31 17 SE 1015,4 20 47 0,0
14.06.2019 14:00:00 27,4 7,8 29,0 26,9 19,2 15,7 10 6 37 20 SSE 1015,6 65 52 0,0
14.06.2019 13:00:00 26,9 7,5 28,8 26,2 18,4 15,7 16 9 39 21 SE 1015,8 52 60 0,0
14.06.2019 12:00:00 26,1 8,1 28,3 25,4 17,5 15,7 18 10 37 20 SSE 1016,3 60 60 0,0
14.06.2019 11:00:00 24,4 10,5 25,8 24,0 16,8 15,7 16 9 41 22 SSE 1016,5 60 60 0,0
14.06.2019 10:00:00 22,4 10,7 23,1 21,5 16,2 15,7 21 11 35 19 SE 1016,9 70 60 0,0
14.06.2019 09:00:00 21,1 10,3 21,5 19,2 15,8 15,7 16 8 32 17 SSE 1016,6 68 60 0,0
14.06.2019 08:00:00 19,5 9,5 19,0 16,2 15,7 15,7 12 6 28 15 S 1016,8 52 60 0,0
14.06.2019 07:00:00 16,6 9,2 14,1 12,8 15,9 15,7 4 2 11 6 ENE 1017,2 60 60 0,0
14.06.2019 06:00:00 11,4 9,0 9,0 11,2 16,3 15,7 4 2 14 8 SE 1017,6 71 32 0,0
14.06.2019 05:00:00 11,9 8,5 8,9 11,3 16,7 15,7 9 5 13 7 SSE 1017,4 72 0 0,0
14.06.2019 04:00:00 10,8 8,7 8,2 11,9 17,1 15,7 6 3 16 8 SSE 1017,4 69 0 0,0
14.06.2019 03:00:00 11,9 9,2 9,5 12,4 17,6 15,7 9 5 13 7 ESE 1016,9 66 0 0,0
14.06.2019 02:00:00 12,3 9,9 9,5 13,2 18,1 15,7 3 2 14 8 N 1016,8 72 0 0,0
14.06.2019 01:00:00 13,2 10,8 10,4 14,1 18,6 15,7 7 4 17 9 S 1017,0 64 0 0,0
14.06.2019 00:00:00 14,3 11,3 11,9 14,9 19,1 15,7 11 6 17 9 SSW 1016,4 63 0 0,0
13.06.2019 23:00:00 14,2 12,2 11,9 16,1 19,6 15,7 8 5 14 8 S 1015,9 55 0 0,0
13.06.2019 22:00:00 15,6 14,4 14,1 17,6 20,0 15,7 8 4 13 7 SE 1015,1 51 10 0,0
13.06.2019 21:00:00 15,9 14,3 15,0 18,6 20,4 15,7 5 3 54 29 SW 1014,6 44 15 4,3
13.06.2019 20:00:00 21,2 10,5 19,7 21,0 20,5 15,7 10 6 19 11 S 1013,7 67 29 0,0
13.06.2019 19:00:00 22,7 10,2 24,6 22,0 20,5 15,7 8 4 22 12 SW 1012,8 75 21 0,0
13.06.2019 18:00:00 23,0 10,1 25,1 24,2 20,4 15,7 13 7 26 14 SSW 1012,8 75 35 0,0
13.06.2019 17:00:00 22,1 10,3 22,2 24,0 20,2 15,7 10 5 25 13 S 1013,0 61 25 0,0

tt = Température de l'air
td = dewpoint
tt 5cm = Température de l'air 5cm
tt -5cm = Température de l'air -5cm
tt -20cm = Température de l'air -20cm
tt -100cm = Température de l'air -100cm
ff = Vitesse du vent
fx = gusts
dd = Direction du vent
ppp = reduced air pressure
vv = visibility
sd = Ensoleillement
rr = Quantités de précipitations

stations d'obs. à proximité